Elizabeth City, NC

6:31 AM EDT on October 18, 2017 (GMT -0400)
Elizabeth City Cgas-Regional

Weather History for KECG - December, 2013

Change the Weather History Date:

Tuesday, December 10, 2013

  Actual Average Record
Temperature  
Mean Temperature 41 °F 46 °F  
Max Temperature 49 °F 56 °F 78 °F (2007)
Min Temperature 33 °F 36 °F 15 °F (1960)
Degree Days  
Heating Degree Days 24 19  
Month to date heating degree days 152 180  
Since 1 July heating degree days 715 695  
Cooling Degree Days 0 0  
Month to date cooling degree days 7 0  
Year to date cooling degree days 1672 1588  
Moisture  
Dew Point 42 °F    
Average Humidity 93    
Maximum Humidity 100    
Minimum Humidity 85    
Precipitation  
Precipitation 0.40 in 0.08 in 2.05 in (2003)
Month to date precipitation 1.54 0.81  
Year to date precipitation 41.13 44.83  
Snow  
Snow 0.00 in - T in (1961)
Month to date snowfall 0.0  
Since 1 July snowfall T  
Snow Depth 0.00 in    
Sea Level Pressure  
Sea Level Pressure 30.03 in    
Wind  
Wind Speed 8 mph (NNW)    
Max Wind Speed 24 mph    
Max Gust Speed 31 mph    
Visibility 6 miles    
Events Rain    
T = Trace of Precipitation, MM = Missing Value Source: NWS Daily Summary

Daily Weather History Graph

Daily Weather History Graph

Search for Another Location

Airport or City:

Trip Planner

Search our weather history database for the weather conditions in past years. The results will help you decide how hot, cold, wet, or windy it might be!

Date:

Astronomy

Dec. 10, 2013 Rise Set
Actual Time 7:05 AM EST 4:49 PM EST
Civil Twilight 6:36 AM EST 5:18 PM EST
Nautical Twilight 6:04 AM EST 5:50 PM EST
Astronomical Twilight 5:33 AM EST 6:21 PM EST
Moon 12:41 PM EST (12/10) 12:31 AM EST (12/10)
Length of Visible Light 10h 41m
Length of Day
9h 44m
First Quarter, 61% of the Moon is Illuminated
Dec 10
First Quarter
Dec 17
Full
Dec 25
Last Quarter
Jan 1
New
Jan 7
First Quarter

Hourly Weather History & Observations

Time (EST) Temp. Windchill Dew Point Humidity Pressure Visibility Wind Dir Wind Speed Gust Speed Precip Events Conditions
12:54 AM 48.9 °F - 46.9 °F 93% 30.06 in 8.0 mi Calm Calm - 0.00 in Rain Light Rain
1:54 AM 48.9 °F - 48.0 °F 97% 30.05 in 9.0 mi Calm Calm - 0.01 in Rain Light Rain
2:01 AM 48.9 °F - 46.9 °F 93% 30.05 in 10.0 mi Calm Calm - 0.00 in Rain Light Rain
2:25 AM 48.9 °F - 48.0 °F 97% 30.05 in 5.0 mi Calm Calm - 0.01 in Rain Light Rain
2:37 AM 48.9 °F - 48.0 °F 97% 30.04 in 3.0 mi Calm Calm - 0.01 in Rain Light Rain
2:54 AM 48.9 °F - 48.0 °F 97% 30.04 in 4.0 mi Calm Calm - 0.01 in Rain Light Rain
3:50 AM 48.2 °F - 48.2 °F 100% 30.00 in 6.0 mi Calm Calm - 0.02 in   Overcast
3:54 AM 48.9 °F - 48.0 °F 97% 30.00 in 7.0 mi Calm Calm - 0.02 in   Overcast
4:14 AM 48.9 °F - 46.9 °F 93% 29.99 in 7.0 mi Calm Calm - N/A   Overcast
4:51 AM 48.2 °F - 46.4 °F 93% 29.98 in 8.0 mi Calm Calm - N/A   Overcast
4:54 AM 48.0 °F - 46.9 °F 96% 29.99 in 8.0 mi NW 3.5 mph - N/A   Overcast
5:17 AM 48.0 °F - 46.9 °F 96% 29.97 in 7.0 mi Calm Calm - N/A   Overcast
5:54 AM 48.0 °F - 46.9 °F 96% 29.96 in 4.0 mi NE 3.5 mph - 0.00 in   Overcast
6:16 AM 48.0 °F - 46.9 °F 96% 29.96 in 2.5 mi ENE 3.5 mph - 0.00 in   Overcast
6:54 AM 48.0 °F - 46.9 °F 96% 29.98 in 3.0 mi Calm Calm - 0.06 in Rain Light Rain
7:08 AM 48.0 °F - 46.9 °F 96% 29.97 in 5.0 mi North 4.6 mph - 0.00 in Rain Light Rain
7:16 AM 48.0 °F - 46.9 °F 96% 29.96 in 2.0 mi NNE 4.6 mph - 0.00 in Rain Light Rain
7:35 AM 48.0 °F - 46.9 °F 96% 29.97 in 4.0 mi NE 4.6 mph - 0.02 in Rain Light Rain
7:45 AM 48.0 °F - 46.9 °F 96% 29.97 in 5.0 mi North 5.8 mph - 0.02 in Rain Light Rain
7:54 AM 48.0 °F - 46.9 °F 96% 29.96 in 5.0 mi NNE 8.1 mph - 0.03 in Rain Rain
8:54 AM 46.9 °F - 45.0 °F 93% 29.96 in 3.0 mi NNE 11.5 mph - 0.04 in Rain Rain
9:54 AM 46.0 °F 39.6 °F 44.1 °F 93% 29.92 in 9.0 mi NNE 15.0 mph - 0.04 in Rain Light Rain
10:24 AM 45.0 °F 38.9 °F 43.0 °F 93% 29.92 in 2.0 mi North 12.7 mph - 0.01 in Rain Light Rain
10:46 AM 44.1 °F 38.6 °F 43.0 °F 96% 29.91 in 6.0 mi North 10.4 mph - 0.01 in Rain Light Rain
10:54 AM 44.1 °F 38.1 °F 42.1 °F 93% 29.92 in 6.0 mi North 11.5 mph - 0.01 in   Overcast
11:19 AM 43.0 °F 36.0 °F 42.1 °F 97% 29.92 in 1.8 mi North 13.8 mph - 0.01 in Rain Light Rain
11:32 AM 43.0 °F 36.0 °F 42.1 °F 97% 29.91 in 2.5 mi NNE 13.8 mph - 0.02 in Rain Light Rain
11:54 AM 43.0 °F 36.8 °F 41.0 °F 93% 29.89 in 2.0 mi North 11.5 mph - 0.02 in   Overcast
12:01 PM 43.0 °F 36.4 °F 41.0 °F 93% 29.90 in 3.0 mi North 12.7 mph - N/A   Overcast
12:38 PM 42.1 °F 34.2 °F 39.9 °F 92% 29.92 in 1.8 mi North 16.1 mph 26.5 mph 0.03 in Rain Heavy Rain
12:49 PM 42.8 °F 34.8 °F 39.2 °F 87% 29.92 in 3.0 mi NNW 17.3 mph - 0.04 in Rain Rain
12:54 PM 41.0 °F 32.5 °F 39.9 °F 96% 29.92 in 2.5 mi NNW 17.3 mph - 0.06 in Rain Rain
1:40 PM 41.0 °F 31.9 °F 39.0 °F 93% 29.94 in 7.0 mi NNW 19.6 mph - 0.06 in Rain Light Rain
1:54 PM 41.0 °F 31.9 °F 39.0 °F 93% 29.96 in 5.0 mi NNW 19.6 mph - 0.07 in Rain Rain
2:26 PM 39.9 °F 31.4 °F 37.9 °F 93% 29.99 in 9.0 mi NNW 16.1 mph - 0.03 in Rain Light Rain
2:33 PM 41.0 °F 33.1 °F 37.9 °F 89% 29.99 in 10.0 mi NNW 15.0 mph - 0.03 in Rain Light Rain
2:54 PM 41.0 °F 32.8 °F 37.9 °F 89% 30.02 in 10.0 mi NNW 16.1 mph 25.3 mph 0.03 in   Overcast
3:29 PM 41.0 °F 33.1 °F 37.9 °F 89% 30.05 in 10.0 mi NNW 15.0 mph - N/A   Overcast
3:54 PM 41.0 °F 33.5 °F 37.9 °F 89% 30.07 in 10.0 mi NNW 13.8 mph - N/A   Overcast
4:54 PM 41.0 °F 33.5 °F 37.9 °F 89% 30.12 in 10.0 mi NNW 13.8 mph - N/A   Overcast
5:54 PM 41.0 °F 33.9 °F 37.0 °F 86% 30.17 in 10.0 mi NNW 12.7 mph - N/A   Overcast
6:41 PM 39.9 °F 33.9 °F 37.0 °F 89% 30.20 in 10.0 mi NW 9.2 mph - N/A   Overcast
6:54 PM 39.9 °F 34.5 °F 37.0 °F 89% 30.20 in 10.0 mi NW 8.1 mph - N/A   Overcast
7:39 PM 37.9 °F 33.5 °F 35.1 °F 89% 30.22 in 10.0 mi WNW 5.8 mph - N/A   Scattered Clouds
7:54 PM 37.0 °F 32.4 °F 34.0 °F 89% 30.23 in 10.0 mi WNW 5.8 mph - N/A   Partly Cloudy
8:54 PM 36.0 °F 33.3 °F 35.1 °F 97% 30.26 in 10.0 mi West 3.5 mph - N/A   Partly Cloudy
9:54 PM 34.0 °F 28.8 °F 33.1 °F 96% 30.27 in 9.0 mi SW 5.8 mph - N/A   Clear
10:54 PM 34.0 °F 28.8 °F 33.1 °F 96% 30.29 in 8.0 mi WSW 5.8 mph - N/A   Clear
11:54 PM 34.0 °F 28.8 °F 33.1 °F 96% 30.31 in 9.0 mi WSW 5.8 mph - N/A   Clear